Location: Arroyo de las Minas
(41.1840°N, 4.0200°W)
Time: 16:12:22
(UTC+00:00)

Daily predictions for brighter satellites

Satellite Brightness Start Highest point End
(mag) Time Altitude Azimuth Time Altitude Azimuth Time Altitude Azimuth
SL-08 R/B 3.5 17:55:24 10° NNE 18:00:22 89° WNW 18:05:19 10° SSW
Cosmos 2228 3.9 17:57:36 10° NNE 18:01:13 27° ENE 18:04:48 10° SE
Tiangong 0.2 18:04:20 10° W 18:06:58 24° SSW 18:09:35 10° SSE
Cosmos 2263 Rocket 2.1 18:03:31 10° NNW 18:09:06 72° ENE 18:14:38 10° SSE
SL-08 RB Rocket 4.4 18:04:46 10° S 18:09:19 63° W 18:13:58 10° NNW
CZ-4 R/B 3.2 18:08:04 10° E 18:09:42 12° ENE 18:11:21 10° NE
Cosmos 1238 Rocket 4.4 18:06:28 10° NNW 18:11:19 58° W 18:16:59 10° S
ADEOS 3.9 18:08:49 10° S 18:14:00 73° WSW 18:19:14 10° NNW
Cosmos 1328 3.9 18:11:16 10° S 18:15:09 53° E 18:19:02 10° NNE
Cosmos 1544 Rocket 3.7 18:12:12 10° N 18:16:31 77° W 18:20:49 10° S
Okean O Rocket 3.2 18:14:32 10° E 18:16:56 15° ENE 18:19:21 10° NNE
Cosmos 724 4.3 18:12:43 10° SSW 18:18:36 86° ESE 18:24:40 10° NNE
Cosmos 2266 Rocket 4.0 18:13:30 10° N 18:19:50 84° E 18:26:00 10° S
NOSS 2-1 (C) 4.0 18:16:44 10° NNW 18:21:20 78° NE 18:27:56 10° SE
ISS -2.5 18:18:45 10° NW 18:21:39 26° NNE 18:23:39 15° ENE
Cosmos 1184 Rocket 1.9 18:21:11 10° N 18:23:32 57° E 18:25:51 10° SSE
Cosmos 1954 Rocket 4.5 18:21:53 10° S 18:26:46 40° ESE 18:31:38 10° NE
CZ-4B DEB 4.2 18:23:42 10° SSE 18:29:02 62° ENE 18:34:26 10° N
NOSS 2-1 (D) 4.1 18:24:43 10° NW 18:29:20 89° NE 18:35:58 10° SSE
BREEZE-M DEB (TANK) 4.4 18:25:23 10° WNW 18:29:23 86° SSW 18:46:20 10° SE
COSMOS 2455 4.1 18:26:48 10° WSW 18:32:22 38° NW 18:37:58 10° NNE
Cosmos 2251 Rocket 4.4 18:27:14 10° SW 18:32:27 53° WNW 18:37:42 10° N
CZ-4B R/B 3.6 18:30:45 10° SE 18:35:34 36° ENE 18:40:29 10° N
CZ-4C R/B 3.2 18:32:21 10° NNE 18:36:14 88° WNW 18:39:54 10° SSW
USA 290 4.2 18:33:32 10° SW 18:36:22 28° WNW 18:39:14 10° N
CZ-4B R/B 3.8 18:32:17 10° S 18:36:24 53° W 18:40:20 10° NNW
CZ-4 R/B 4.4 18:35:51 10° SSE 18:39:57 88° WSW 18:44:05 10° NNW
Cosmos 1844 Rocket 3.5 18:35:53 10° N 18:40:40 28° NE 18:43:47 17° ESE
Cosmos 2227 4.2 18:37:17 10° NNW 18:43:04 73° ENE 18:48:48 10° SSE
Timation 2 Rocket 4.0 18:37:06 10° NNW 18:43:22 88° ENE 18:49:53 10° SSE
Cosmos 1763 Rocket 3.8 18:40:52 10° N 18:45:47 41° ENE 18:50:35 10° SE
SKYMED 2 4.2 18:42:02 10° N 18:46:20 59° WNW 18:50:34 10° SSW
Cosmos 2278 4.4 18:41:59 10° SW 18:47:32 56° WNW 18:53:08 10° NNE
USA 215 4.1 18:43:11 10° SSE 18:49:30 51° SW 18:55:51 10° NW
SL-08 ROCKET BODY 4.2 18:43:57 10° N 18:49:50 77° E 18:55:40 10° S
Cosmos 2333 Rocket 3.1 18:49:05 10° SSE 18:53:38 26° ESE 18:54:33 24° E
MINOTAUR 4 R/B 3.9 18:53:04 18° NNE 18:55:25 57° E 18:58:46 10° S
Cosmos 2360 Rocket 2.6 18:50:29 10° S 18:55:43 41° ESE 18:59:03 21° NE
ATLAS 2AS CENTAUR R/B 2.8 18:49:40 10° NNW 18:56:31 53° NE 19:01:41 16° ESE
YAOGAN 1 2.5 18:53:09 10° SSE 18:57:25 64° ENE 19:01:42 10° N
Cosmos 2219 Rocket 3.7 18:54:20 10° SE 18:56:23 16° ESE 18:56:23 16° ESE
Meteor 2-1 Rocket 4.5 18:54:52 10° NNW 19:00:38 72° W 19:06:15 10° S
SL-4 R/B 3.8 19:00:15 10° NW 19:02:37 17° N 19:03:34 15° NNE
Cosmos 1892 3.1 19:00:18 10° SSW 19:03:57 62° W 19:07:41 10° N
Nadezhda 2 Rocket 4.4 18:57:59 10° N 19:04:08 64° E 19:10:11 10° SSE
Cosmos 2322 Rocket 2.1 19:00:08 10° SSW 19:05:43 76° ESE 19:10:36 14° NNE
ATLAS CENTAUR R/B 3.8 19:04:00 10° W 19:07:37 21° NW 19:11:08 10° N
Cosmos 676 Rocket 3.9 19:03:09 10° SSW 19:08:28 85° ESE 19:13:42 10° NNE
Cosmos 540 Rocket 3.8 19:03:51 10° N 19:08:45 42° ENE 19:10:11 34° ESE
IRIDIUM 106 4.3 19:08:13 10° N 19:13:22 57° E 19:18:30 10° SSE
Cosmos 1461 2.8 19:09:55 10° SSW 19:14:03 67° ESE 19:15:09 47° ENE
SL-16 R/B 2.7 19:12:39 10° SW 19:18:14 60° WNW 19:23:52 10° NNE
BREEZE M DEB (TANK) 2.4 19:14:47 10° WNW 19:18:36 64° SW 19:18:42 63° SSW
Meteor 2-12 Rocket 4.3 19:16:03 10° N 19:22:11 82° E 19:28:13 10° S
In-Cosmos 22 Rocket 4.3 19:16:30 10° SSW 19:22:17 82° W 19:28:09 10° N
Cosmos 1825 2.7 19:20:46 10° SSW 19:24:23 57° W 19:27:13 16° N
Cosmos 1606 Rocket 3.9 19:20:36 10° NNW 19:24:52 62° W 19:29:07 10° S
BlueWalker 3 4.2 19:24:57 10° NW 19:27:11 15° N 19:27:27 14° N
Lacrosse 5 2.0 19:22:07 10° SW 19:27:12 70° NW 19:29:04 39° NNE
Meteor 1-27 4.1 19:22:11 10° N 19:27:58 67° ENE 19:33:38 10° SSE
Cosmos 1892 Rocket 3.7 19:27:28 10° SSW 19:31:54 74° W 19:35:28 16° N
Cosmos 1633 3.3 19:34:30 10° SSW 19:37:32 46° W 19:37:32 46° W
CZ-4 R/B 1.9 19:40:00 10° S 19:44:05 60° W 19:48:09 10° NNW
BREEZE-M DEB (TANK) 3.4 19:28:50 10° WSW 19:44:09 82° NNW 19:45:22 56° NE
Okean O Rocket 2.2 19:48:30 10° S 19:52:47 55° W 19:57:07 10° NNW
Cosmos 1745 Rocket 3.8 19:47:12 10° N 19:53:29 76° E 19:55:06 51° SSE
BREEZE-M DEB (TANK) 3.6 19:52:32 10° WNW 19:56:35 65° NNE 19:57:31 59° ENE
ISS -1.2 19:55:15 10° WNW 19:56:34 21° WNW 19:56:34 21° WNW
Cosmos 1386 Rocket 4.3 19:57:27 10° N 20:03:29 83° W 20:06:13 35° S
Atlas Centaur 2 4.0 20:13:28 10° SW 20:20:07 31° S 20:20:07 31° S
Cosmos 1844 Rocket 3.7 20:19:27 10° NW 20:24:41 42° WSW 20:25:34 39° SW
Cosmos 2333 Rocket 3.3 20:32:11 10° SW 20:36:39 41° W 20:36:39 41° W
Cosmos 2360 Rocket 3.8 20:34:56 10° WSW 20:39:49 29° NW 20:40:54 27° NW
Cosmos 2219 Rocket 3.9 20:35:56 10° SW 20:38:11 25° SW 20:38:11 25° SW
ATLAS 2AS CENTAUR R/B 4.1 20:41:12 10° NW 20:47:03 31° WSW 20:49:13 25° SW
